Wind_Speed
40 39 38 36 34 33 32 31 31 30 30 30 29 29 28 28 28 24 23 22 24 24 22 20 21 17 14 12 6 14 15 14 12 17 19 22 25 22 27 27 24 17 11 8 6
41 41 41 40 39 37 36 36 35 34 34 34 34 32 31 30 31 31 27 25 25 23 21 19 19 15 12 9 4 1 6 10 6 16 15 14 15 25 20 30 28 22 12 9 5
40 41 43 44 43 42 41 41 39 39 38 38 37 36 36 34 35 33 32 30 27 24 24 20 16 16 13 10 8 13 9 1 7 6 8 9 10 20 21 26 29 18 16 6 2
35 35 37 39 41 43 43 43 43 43 42 40 40 40 39 38 39 38 38 36 32 26 24 22 17 14 11 10 12 18 14 14 7 17 6 4 7 17 19 27 29 19 17 12 9
37 37 36 36 38 40 43 44 44 43 43 42 43 43 42 42 42 42 41 36 33 29 25 23 18 16 11 13 10 14 18 23 24 23 6 4 13 17 17 21 24 18 19 18 7
46 44 42 41 39 39 38 39 42 44 44 42 43 44 44 43 41 43 40 36 33 31 27 23 22 19 15 16 11 16 15 17 24 16 6 7 12 13 13 17 21 18 22 21 10
53 52 49 47 45 43 42 41 42 42 42 42 42 44 44 42 41 40 38 36 34 32 27 24 25 21 17 15 16 15 18 20 20 10 8 11 4 7 14 21 24 19 24 17 13
54 55 54 53 50 48 47 46 45 45 44 46 45 45 41 46 39 37 38 36 34 31 29 27 23 21 17 16 16 16 19 21 20 15 17 14 14 16 18 19 16 20 11 15 19
54 54 55 56 56 56 54 52 50 49 49 48 48 48 45 47 38 40 39 37 34 33 31 28 22 22 20 19 16 20 19 25 23 26 25 14 17 20 16 15 18 20 14 13 18
57 58 58 57 58 56 55 56 55 52 50 49 48 48 44 43 42 42 40 37 33 34 32 29 25 23 18 20 17 22 21 21 30 34 36 30 15 13 17 20 22 20 17 17 12
54 54 55 56 56 55 55 53 55 53 52 49 48 46 42 41 42 39 37 36 34 33 33 30 29 21 18 17 19 22 28 23 28 32 38 41 34 25 25 24 22 18 23 21 16
52 53 52 53 52 51 50 49 49 49 49 46 45 43 41 41 42 38 36 34 35 34 31 32 31 23 22 18 19 21 31 31 30 32 31 37 40 45 26 26 24 21 22 18 14
50 51 50 51 50 50 49 48 48 49 49 44 45 41 41 42 39 38 38 34 33 34 33 31 30 27 26 21 20 20 26 33 34 30 34 34 34 33 32 30 28 24 27 24 18
46 47 47 48 47 46 47 48 49 49 49 44 47 41 43 43 43 35 37 35 33 35 31 33 30 30 28 26 24 22 24 29 33 38 34 39 35 37 40 40 31 29 28 23 25
42 43 44 45 45 44 45 45 46 47 48 45 47 45 45 45 43 40 38 36 38 35 33 35 32 31 31 31 28 25 25 29 33 36 36 38 38 36 43 42 32 33 22 26 28
36 40 40 40 40 41 44 45 45 45 46 42 42 41 41 41 44 43 42 41 40 34 38 39 36 32 35 34 34 27 29 30 35 34 32 36 40 38 35 38 36 32 32 34 36
29 33 37 36 38 39 39 41 43 45 43 43 43 41 39 40 41 42 43 44 42 40 43 42 37 36 37 37 36 31 30 30 33 35 31 31 33 32 36 37 34 35 35 37 35
27 28 28 33 35 36 36 36 36 38 39 44 46 45 44 42 42 43 42 41 40 40 42 42 39 41 39 38 37 37 35 32 36 37 32 30 32 31 32 31 31 28 30 28 29
30 26 26 32 33 34 34 31 29 28 34 38 38 38 39 39 41 44 43 38 37 40 39 43 43 39 40 39 39 39 40 39 38 39 34 32 32 27 28 26 28 27 27 25 25
34 29 28 29 31 33 34 29 28 29 32 33 31 34 36 37 41 41 40 38 38 39 40 40 38 39 38 38 41 41 42 43 42 40 35 32 24 23 24 21 24 21 22 28 26
38 34 32 30 31 33 35 31 27 27 31 33 32 31 33 33 35 35 33 35 36 36 37 35 35 34 35 40 41 38 40 41 40 38 35 28 18 21 19 14 16 15 20 23 27
38 39 36 35 33 34 34 31 29 31 33 34 30 29 27 26 31 31 29 29 30 31 33 33 30 28 34 36 36 34 35 35 34 36 28 17 18 16 10 5 7 14 16 15 23
43 40 39 40 40 37 29 28 32 33 35 36 34 30 28 28 27 27 26 28 28 30 30 31 29 29 31 34 35 32 31 33 33 28 19 13 16 15 16 23 25 22 23 18 21
48 43 42 42 43 40 32 30 34 35 37 38 35 33 29 27 25 28 26 28 29 30 30 32 30 30 32 36 32 26 25 27 26 20 11 12 16 15 23 34 37 27 22 21 18
47 48 46 46 47 45 41 36 39 37 37 38 35 32 31 28 22 28 27 27 27 29 30 33 32 29 32 30 26 23 25 26 23 15 11 17 13 20 26 28 25 21 22 15 12
47 50 52 53 51 50 46 39 38 36 38 39 39 33 31 29 26 27 28 25 26 26 30 30 30 29 26 25 24 26 30 30 20 17 14 15 22 26 23 25 21 25 22 12 5
49 50 53 57 55 53 48 44 39 38 40 41 39 32 29 29 26 28 25 24 26 29 27 26 24 24 21 20 18 17 21 28 24 18 19 21 23 28 27 26 24 21 18 16 9
Wind_Direction
241 242 244 247 251 255 257 260 264 269 275 282 287 293 296 302 308 314 319 321 324 324 326 337 0 360 346 9 128 93 50 15 59 41 45 30 29 32 44 37 33 27 39 53 56
244 246 246 248 249 253 257 260 263 266 269 275 280 285 289 294 301 304 309 313 315 315 317 326 349 343 341 350 295 33 14 23 14 17 17 36 20 30 37 29 26 30 20 28 40
245 248 250 251 253 253 255 259 262 267 269 272 275 279 282 287 293 297 303 303 306 306 309 316 334 336 329 327 282 285 303 300 20 28 23 2 19 28 17 14 17 26 30 28 28
243 246 249 251 253 253 256 259 263 265 268 271 275 276 279 284 288 292 295 295 299 297 299 309 317 326 323 302 306 289 245 254 285 309 295 295 4 14 9 356 2 14 20 31 69
245 246 247 250 253 255 255 258 260 263 266 269 271 274 278 281 285 288 291 291 294 293 292 300 306 317 317 292 303 277 264 250 263 277 314 356 354 5 2 357 352 356 14 17 1
251 251 252 255 256 257 258 258 260 262 265 267 269 272 275 279 281 282 285 287 289 288 291 294 299 305 306 290 283 276 276 262 262 253 250 21 358 347 346 355 1 352 350 355 343
251 251 252 253 255 257 258 260 260 261 261 264 267 270 273 275 275 280 283 284 285 286 289 292 298 298 298 293 291 287 275 267 250 226 266 251 262 356 339 344 346 341 337 353 1
249 249 250 251 251 253 254 256 258 260 261 261 263 267 272 272 275 279 278 280 280 283 286 289 292 295 295 293 287 278 277 285 260 230 241 248 274 275 291 327 340 334 14 354 356
248 249 251 252 251 251 252 255 258 260 262 263 263 266 271 273 273 272 275 278 281 282 283 283 286 290 295 295 291 278 281 268 252 235 238 236 252 267 294 309 317 314 307 340 353
251 250 252 253 253 253 254 255 257 260 260 262 262 264 266 267 269 268 272 275 278 279 280 284 282 283 288 292 281 266 276 262 255 254 245 241 266 279 296 304 301 304 315 331 15
251 251 252 253 253 253 254 254 255 255 256 258 257 260 260 262 265 267 268 268 269 271 277 279 278 277 281 279 275 269 261 268 264 264 259 252 251 272 293 303 297 310 319 321 334
252 252 252 252 252 252 252 253 253 253 254 255 258 259 258 259 262 265 267 267 268 269 271 274 275 281 275 269 260 254 246 258 256 263 261 261 263 269 278 299 290 287 303 310 323
252 252 252 252 251 251 250 250 250 250 251 251 252 252 255 256 257 257 259 260 261 266 266 269 273 274 272 272 265 255 251 248 252 255 264 269 270 277 283 292 278 289 293 309 308
252 251 250 252 251 250 250 249 248 248 249 248 251 250 247 251 255 258 260 261 261 260 265 266 268 272 274 271 268 260 252 253 249 248 259 266 270 272 284 292 293 293 293 302 304
253 252 251 251 250 250 249 247 246 246 246 245 247 246 247 250 255 255 256 257 257 259 264 266 267 268 273 270 268 264 255 254 251 246 245 254 263 265 282 285 286 289 287 303 291
255 252 250 250 249 248 247 247 246 246 246 246 244 245 247 251 253 253 254 254 257 258 260 261 263 264 267 272 269 267 261 257 260 257 248 245 256 264 267 272 278 277 272 287 285
256 254 252 249 248 247 246 246 247 247 247 246 248 246 246 248 249 251 249 249 250 253 256 259 262 267 267 268 270 268 263 262 263 262 250 251 251 255 257 263 268 276 271 274 272
260 255 253 251 247 247 248 248 248 246 243 240 240 241 243 245 245 247 247 247 247 248 250 254 256 255 262 267 269 271 267 262 259 259 256 252 250 251 260 262 270 268 271 271 265
261 257 251 249 249 246 245 247 246 242 240 239 237 238 240 239 243 243 242 243 246 247 247 249 251 256 259 262 263 261 264 259 257 259 260 257 254 253 260 270 268 262 260 260 255
258 257 254 247 248 246 241 239 236 236 239 239 235 234 234 236 236 241 242 240 240 243 245 248 251 255 262 263 260 259 259 263 262 261 259 258 260 257 256 251 255 260 254 252 247
253 253 252 250 247 245 241 235 232 233 238 239 238 238 241 239 239 236 236 238 237 239 243 247 249 252 252 253 257 258 259 260 262 264 262 259 254 248 247 246 261 253 230 234 238
256 249 251 250 248 245 243 236 227 227 232 237 236 232 233 238 248 242 236 238 237 238 239 241 246 249 253 256 257 256 258 258 258 256 258 258 245 235 199 217 257 270 229 229 227
257 251 245 249 247 247 242 243 232 228 229 234 233 231 230 231 239 238 238 237 233 233 233 237 241 243 247 250 251 250 249 252 253 256 252 232 220 203 208 204 205 233 216 201 198
254 250 244 241 246 244 235 234 233 227 227 230 230 230 232 232 235 235 227 233 235 237 235 236 238 243 246 250 258 262 259 258 261 262 241 196 185 209 221 222 218 232 201 175 172
250 245 243 235 236 239 234 226 233 224 227 230 231 229 230 232 230 243 233 233 234 238 237 236 239 245 250 260 263 263 261 256 254 246 190 175 192 211 229 224 221 219 190 177 202
248 243 237 238 230 234 234 228 234 231 225 226 227 225 228 231 230 239 239 235 236 237 237 239 242 245 248 249 254 249 242 248 239 226 195 201 220 224 227 223 217 200 212 209 159
252 243 236 234 231 228 231 228 230 232 229 225 224 217 223 226 234 236 238 229 231 235 237 236 243 243 245 247 253 257 239 230 220 205 212 222 222 217 227 229 208 208 213 226 222
Height
10995 10997 11000 11002 11004 11005 11007 11008 11009 11009 11010 11009 11009 11008 11008 11008 11009 11011 11011 11010 11006 11003 11002 11002 11004 10997 10990 10991 10986 10981 10981 10980 10977 10977 10977 10977 10975 10971 10968 10966 10966 10964 10962 10963 10963
10989 10992 10994 10997 10999 11001 11002 11003 11004 11005 11006 11006 11005 11005 11005 11005 11004 11006 11007 11008 11006 11004 11003 11003 11005 10996 10994 10992 10988 10983 10979 10979 10979 10975 10975 10978 10975 10970 10971 10968 10968 10966 10962 10961 10963
10983 10985 10988 10991 10994 10996 10997 10998 10999 11000 11001 11001 11001 11000 11000 11001 11000 11000 11003 11003 11004 11002 11000 11001 11004 10996 10993 10990 10987 10983 10979 10980 10979 10978 10974 10974 10973 10972 10968 10968 10969 10972 10970 10964 10962
10976 10979 10981 10983 10986 10989 10991 10993 10993 10995 10996 10996 10996 10995 10995 10996 10995 10995 10997 10997 10998 10999 10998 10997 10998 10996 10991 10988 10986 10983 10981 10978 10980 10978 10976 10974 10974 10974 10969 10966 10965 10967 10970 10968 10964
10970 10972 10974 10977 10979 10982 10984 10986 10987 10989 10990 10991 10990 10990 10990 10990 10990 10989 10989 10991 10991 10992 10993 10994 10994 10992 10989 10985 10985 10980 10980 10981 10979 10976 10975 10976 10974 10974 10972 10970 10969 10967 10965 10966 10966
10964 10966 10968 10970 10972 10974 10977 10978 10980 10982 10983 10984 10984 10984 10985 10985 10984 10982 10982 10984 10985 10985 10986 10988 10987 10987 10985 10981 10984 10978 10979 10979 10976 10974 10973 10973 10973 10973 10973 10973 10971 10970 10966 10965 10962
10955 10958 10960 10963 10965 10967 10969 10972 10973 10975 10976 10977 10977 10976 10978 10978 10976 10977 10977 10978 10979 10979 10980 10982 10982 10981 10979 10978 10975 10976 10976 10974 10971 10971 10969 10970 10969 10971 10972 10972 10972 10969 10965 10964 10961
10945 10948 10951 10954 10956 10959 10962 10964 10966 10968 10970 10970 10970 10970 10973 10968 10973 10974 10971 10973 10974 10974 10974 10976 10978 10975 10975 10974 10972 10972 10972 10970 10970 10969 10969 10972 10972 10972 10971 10970 10971 10972 10971 10968 10964
10935 10937 10940 10943 10946 10949 10953 10955 10957 10961 10962 10963 10964 10964 10967 10963 10970 10965 10966 10967 10968 10968 10967 10969 10974 10971 10970 10969 10969 10966 10967 10967 10968 10965 10969 10969 10970 10971 10969 10968 10969 10969 10968 10966 10963
10923 10927 10930 10933 10935 10939 10943 10946 10949 10951 10953 10954 10956 10957 10960 10957 10960 10959 10961 10962 10965 10961 10962 10963 10966 10968 10969 10965 10966 10963 10963 10966 10965 10963 10965 10968 10968 10969 10969 10968 10966 10965 10964 10963 10961
10912 10915 10919 10921 10924 10928 10932 10937 10938 10940 10941 10944 10945 10948 10951 10949 10949 10953 10955 10955 10957 10958 10957 10958 10958 10964 10965 10964 10961 10961 10960 10962 10962 10960 10962 10963 10965 10965 10969 10968 10965 10962 10960 10959 10958
10899 10903 10907 10909 10913 10917 10921 10925 10927 10929 10931 10935 10937 10940 10942 10942 10942 10946 10948 10950 10950 10951 10953 10952 10951 10957 10959 10961 10961 10960 10959 10958 10959 10956 10956 10958 10961 10961 10964 10965 10963 10960 10958 10957 10956
10887 10890 10895 10897 10902 10906 10909 10914 10916 10917 10920 10928 10926 10932 10934 10933 10936 10938 10939 10943 10944 10945 10946 10947 10948 10949 10951 10955 10955 10956 10956 10955 10956 10954 10952 10955 10957 10954 10957 10958 10960 10957 10955 10955 10956
10876 10879 10883 10885 10891 10895 10898 10902 10903 10907 10910 10917 10916 10925 10924 10924 10926 10934 10933 10936 10937 10937 10941 10939 10943 10943 10945 10947 10949 10951 10951 10949 10952 10950 10953 10950 10953 10950 10951 10949 10952 10952 10951 10951 10951
10865 10868 10872 10875 10879 10884 10886 10888 10892 10896 10898 10907 10908 10913 10916 10917 10920 10925 10927 10929 10928 10931 10934 10933 10937 10938 10938 10938 10942 10944 10945 10944 10943 10946 10952 10949 10947 10951 10947 10944 10947 10947 10945 10944 10944
10855 10858 10861 10865 10869 10872 10874 10877 10881 10885 10889 10896 10900 10905 10908 10912 10912 10916 10919 10920 10922 10928 10925 10925 10928 10932 10931 10932 10933 10939 10937 10938 10935 10939 10945 10947 10947 10947 10944 10939 10942 10943 10941 10939 10938
10847 10848 10852 10856 10858 10860 10864 10868 10872 10876 10882 10888 10891 10896 10899 10902 10904 10905 10908 10910 10915 10919 10918 10918 10923 10924 10923 10923 10925 10930 10932 10933 10931 10931 10937 10940 10941 10942 10938 10938 10938 10936 10936 10936 10932
10840 10842 10845 10845 10848 10850 10855 10858 10863 10866 10871 10873 10877 10883 10888 10891 10893 10895 10898 10902 10907 10909 10910 10911 10915 10914 10916 10917 10917 10918 10921 10924 10922 10924 10930 10934 10934 10936 10934 10936 10933 10931 10928 10927 10927
10833 10836 10837 10836 10840 10842 10846 10851 10855 10858 10858 10862 10868 10874 10877 10881 10883 10883 10888 10895 10899 10900 10903 10901 10904 10908 10908 10910 10910 10911 10911 10913 10916 10916 10920 10924 10926 10932 10931 10931 10927 10924 10924 10924 10924
10825 10829 10829 10830 10831 10834 10837 10843 10848 10851 10851 10854 10861 10864 10867 10870 10871 10875 10882 10887 10889 10891 10893 10895 10899 10900 10901 10902 10900 10903 10903 10903 10905 10908 10913 10916 10922 10926 10923 10923 10922 10926 10926 10925 10926
10816 10820 10822 10822 10823 10825 10828 10835 10842 10845 10846 10847 10852 10857 10861 10864 10865 10869 10874 10878 10881 10884 10886 10891 10892 10894 10893 10890 10891 10895 10895 10896 10897 10899 10903 10910 10917 10917 10920 10921 10920 10918 10917 10919 10921
10806 10810 10813 10814 10816 10816 10822 10829 10836 10838 10839 10839 10847 10852 10855 10859 10861 10865 10868 10871 10875 10878 10881 10882 10886 10888 10884 10884 10885 10887 10887 10888 10890 10891 10898 10907 10909 10913 10918 10913 10909 10916 10918 10918 10920
10792 10798 10803 10805 10807 10810 10818 10823 10826 10832 10834 10835 10840 10845 10849 10851 10855 10860 10863 10866 10870 10872 10876 10876 10879 10880 10878 10878 10878 10881 10882 10882 10884 10889 10896 10901 10903 10909 10910 10905 10904 10916 10914 10914 10916
10779 10786 10791 10794 10797 10803 10808 10811 10814 10822 10826 10828 10834 10840 10845 10848 10852 10855 10857 10860 10864 10867 10870 10871 10872 10873 10872 10869 10873 10878 10880 10880 10882 10887 10893 10898 10901 10901 10899 10894 10900 10905 10907 10910 10913
10765 10773 10776 10780 10784 10789 10795 10800 10801 10812 10819 10823 10830 10836 10840 10844 10848 10850 10853 10856 10858 10860 10863 10864 10866 10868 10867 10870 10871 10873 10873 10874 10878 10884 10891 10895 10896 10892 10891 10895 10902 10904 10907 10908 10908
10749 10756 10762 10761 10771 10777 10786 10794 10797 10805 10809 10813 10819 10829 10835 10839 10842 10844 10847 10850 10852 10855 10857 10859 10862 10863 10866 10867 10869 10867 10865 10866 10872 10879 10886 10891 10889 10889 10892 10896 10899 10902 10903 10906 10909
10732 10738 10746 10749 10757 10765 10776 10784 10790 10793 10798 10803 10810 10821 10826 10831 10835 10836 10842 10844 10846 10847 10851 10853 10856 10860 10862 10862 10862 10859 10858 10860 10865 10870 10877 10878 10881 10885 10888 10890 10897 10900 10902 10903 10903